sat.trackr.live / text

‹ back to catalog

STARLINK-36905

NORAD 68176 · 2026-050K

PAYLOAD ACTIVE UNKNOWN

§ Identity

Operator
Country
US
Launch date
2026-03-14
Launch site
AFETR
Launch vehicle
Mass (kg)
RCS (m²)

Purposes: comms

External: N2YO · Heavens-Above · Gunter

§ Orbital elements

Epoch: 2026-09-19T21:39:05.652000Z

Period
93.85 min
Inclination
53.1579°
Eccentricity
0.0000904
Mean motion
15.34426877 rev/d
Perigee alt
462.0 km
Apogee alt
463.2 km
Semi-major
6,840.8 km
B*
6.3288e-4
RAAN
80.6955°
Arg perigee
96.8141°
Mean anomaly
263.2965°
Rev number
3,047

§ Raw data

STARLINK-369051 68176U 26050K   26262.90214875  .00021085  00000+0  63288-3 0  99902 68176  53.1579  80.6955 0000904  96.8141 263.2965 15.34426877 30479

JSON: /api/v1/satellites/68176 · /tle

For live sub-satellite position, see the globe view (requires WebGL).

§ Visibility from observer

Set your observer location to see the next 7 days of passes ≥ 10°. The values pass through the URL so the page stays shareable.

No JS? Fill the form by hand. The geolocation button needs JavaScript.